Regional Weather Roundup
Issued by NWS

Home | Current Version | Previous Version | Text Only | Print | Product List | Glossary On
Versions: 1 2 3 4 5 6 7 8 9 10 11 12 13 14 15 16 17 18 19 20 21 22 23 24 25 26 27 28 29 30 31 32 33 34 35 36 37 38 39 40 41 42 43 44 45 46 47 48 49 50
000
ASUS46 KLOX 010113
RWRCA

SOUTHERN CALIFORNIA WEATHER ROUNDUP
NATIONAL WEATHER SERVICE OXNARD CALIFORNIA
600 PM PDT TUE MAY 31 2016

NOTE: "FAIR" INDICATES FEW OR NO CLOUDS BELOW 12,000 FEET WITH NO
SIGNIFICANT WEATHER AND/OR OBSTRUCTIONS TO VISIBILITY.

  -  STATIONS PRECEEDED BY AN ASTERISK (*) ARE NOT NWS OR FAA
     STATIONS AND ARE NOT SUBJECT TO NWS AND FAA QUALITY CONTROL.

CAZ041-042-087-010200-
LA AND ORANGE COUNTY COASTAL AREAS


CITY           SKY/WX    TMP DP  RH WIND       PRES   REMARKS
L.A. DOWNTOWN  PTSUNNY   68  58  70 CALM      29.83S
L.A. AIRPORT   CLOUDY    63  57  81 W12       29.84F
LONG BEACH     MOSUNNY   65  57  75 SE9       29.84S

CITY           SKY/WX    TMP DP  RH WIND       PRES   REMARKS
AVALON           N/A     66 N/A N/A NW2         N/A
FULLERTON      SUNNY     69  57  65 VRB7      29.83S
*GETTY CENTER    N/A     61  55  82 SW9         N/A
HAWTHORNE      PTSUNNY   66  57  72 W10       29.84F
*LEO CARRILLO    N/A     63  59  86 W7          N/A
*LOS ALAMITOS  PTSUNNY   66  57  73 S10       29.84S
*REDONDO BEACH   N/A     64  57  77 CALM      29.84S
SANTA ANA      PTSUNNY   65  56  72 SW9       29.84F
STA MONICA APT CLOUDY    65  57  75 SW9       29.85S
*UCLA            N/A     63  55  77 SW5       29.82S

$$

CAZ547-548-048-010200-
LA COUNTY VALLEYS AND INLAND EMPIRE


CITY           SKY/WX    TMP DP  RH WIND       PRES   REMARKS
BURBANK        SUNNY     69  57  65 S12       29.82S
VAN NUYS       SUNNY     72  57  59 SE10      29.81S

CITY           SKY/WX    TMP DP  RH WIND       PRES   REMARKS
CORONA AIRPORT CLEAR     74  59  59 NW13G21   29.81S
*CHATSWORTH      N/A     75  58  55 E3        29.81S
CHINO          MOSUNNY   76  56  49 SW14      29.82F
MARCH AFB      SUNNY     78  57  48 NW12      29.83R
*NORTHRIDGE      N/A     73  55  53 SE3G10      N/A
ONTARIO        MOSUNNY   75  56  51 SW12      29.81F
*PASADENA        N/A    N/A N/A N/A E9          N/A
RIVERSIDE      SUNNY     76  56  49 W12       29.81S
SAN BERNARDINO MOSUNNY   82  54  36 SW12      29.81S
*SAN GABRIEL     N/A     71  60  67 S6        29.89S
*SAN RAFAEL HI   N/A     71  53  52 SE7         N/A
*SAUGUS          N/A     84  53  34 S12         N/A
*WHITEMAN AP   SUNNY     72  57  60 SE9       29.85F
*WOODLAND HILL   N/A     77  57  50 NE5         N/A

$$

CAZ054-055-010200-
LA AND SAN BERNARDINO COUNTY MOUNTAINS


CITY           SKY/WX    TMP DP  RH WIND       PRES   REMARKS
*BIG BEAR AIRP CLEAR     73  25  16 NW5       30.11F
*CHILAO          N/A     79  47  31 SW7         N/A
SANDBERG       SUNNY     83  40  21 VRB3      30.01S
*WARM SPRINGS    N/A     83  61  47 W7          N/A

$$

CAZ028-029-059-060-099-010200-
ANTELOPE VALLEY AND SURROUNDING AREAS


CITY           SKY/WX    TMP DP  RH WIND       PRES   REMARKS
LANCASTER      SUNNY     95  38  13 W28       29.80S HX  90
PALMDALE       SUNNY     94  40  15 W18       29.81S HX  90
*POPPY PARK      N/A     90  42  19 W15G28      N/A

CITY           SKY/WX    TMP DP  RH WIND       PRES   REMARKS
29 PALMS       SUNNY     97  23   7 NW10      29.80F HX  90
BARSTOW/DAGGET SUNNY    100  26   7 E3        29.72F HX  93
BISHOP         SUNNY     94  21   7 NW7       29.88F
CHINA LAKE     SUNNY    100  23   6 SE10      29.74F HX  93
EDWARDS AFB    MOSUNNY   98  31   9 W18       29.75F HX  92
MOJAVE         SUNNY     91  43  18 W21G32    29.83S
NEEDLES        SUNNY    105  31   7 NE9       29.63F HX  98
VICTORVILLE    SUNNY     97  28   9 NW8       29.82S HX  91

$$

CAZ039-040-010200-
VENTURA AND SANTA BARBARA COUNTY COAST


CITY           SKY/WX    TMP DP  RH WIND       PRES   REMARKS
CAMARILLO      CLOUDY    64  56  75 SW10      29.84S
NWS OXNARD       N/A     64  56  74 SW5       29.83F
OXNARD AIRPORT CLOUDY    62  56  80 W10       29.85R
*POINT MUGU    PTSUNNY   63  57  81 W8        29.86R
SBA APT/GOLETA CLOUDY    59  54  83 W8        29.84F
*SANTA BARBARA   N/A     63  53  69 NE3       29.92S
*VENTURA         N/A     62  57  84 SW3       29.83S

$$

CAZ044-045-010200-
VENTURA COUNTY VALLEYS


CITY           SKY/WX    TMP DP  RH WIND       PRES   REMARKS
*SIMI VALLEY     N/A     70  59  68 W5        29.79R
*WESTLAKE VILL   N/A     69  58  68 CALM      29.81S
*OJAI            N/A     71  58  65 CALM      29.77R
*FILLMORE        N/A     71  60  67 CALM      29.73R

$$

CAZ053-010200-
VENTURA COUNTY MOUNTAINS


CITY           SKY/WX    TMP DP  RH WIND       PRES   REMARKS
*ROSE VALLEY     N/A     86  50  28 MISG        N/A

$$

CAZ034-035-036-010200-
CENTRAL COAST AND SANTA YNEZ VALLEY


CITY           SKY/WX    TMP DP  RH WIND       PRES   REMARKS
SAN LUIS OBISP MOSUNNY   66  54  65 NW14      29.86R
SANTA MARIA    SUNNY     62  54  74 NW10      29.87S

CITY           SKY/WX    TMP DP  RH WIND       PRES   REMARKS
*CAL POLY SLO    N/A     66  55  68 SW8         N/A
*LOMPOC        SUNNY     62  54  74 W15       29.87S
*PISMO BEACH     N/A     56  55  93 W3        29.88S
*SANTA YNEZ    FAIR      77  50  38 W10       29.83S

$$

CAZ037-038-051-010200-
SAN LUIS OBISPO COUNTY INTERIOR AND CUYAMA VALLEY


CITY           SKY/WX    TMP DP  RH WIND       PRES   REMARKS
PASO ROBLES    SUNNY     90  46  21 SW15      29.77S

$$

CAZ032-033-061-010200-
SOUTHERN DESERTS


CITY           SKY/WX    TMP DP  RH WIND       PRES   REMARKS
BLYTHE         SUNNY    101  35  10 S8        29.63F HX  95
IMPERIAL       SUNNY    101  42  13 W5        29.61F HX  96
PALM SPRINGS   MOSUNNY  101  53  20 NW15      29.65F HX  99
THERMAL        SUNNY    101  37  11 SE8       29.59F HX  95

$$

ELSEWHERE ACROSS THE WESTERN UNITED STATES AND MEXICO


CITY           SKY/WX    TMP DP  RH WIND       PRES   REMARKS
DEATH VALLEY,    N/A    112  25   5 NW6         N/A  HX 103
DENVER, CO     CLOUDY    60  49  66 E7        30.10R
GRAND CANYON,  SUNNY     74  23  15 N6        30.04S
HONOLULU, HI   PTSUNNY   79  66  65 NE13      29.99F
KAHULUI, MAUI  LGT RAIN  75  70  83 E13G20    29.99F
LAKE TAHOE, CA SUNNY     75  38  26 NE7       30.13S
LAS VEGAS, NV  MOSUNNY   96  30   9 E3        29.69F HX  90
MAMMOTH LAKES, FAIR      73  35  24 W9        30.15S
MEXICO CITY, M CLOUDY    66  48  52 E18G30    30.21  THUNDER
PHOENIX, AZ    PTSUNNY   97  24   7 W12       29.65F HX  90
PORTLAND, OR   PTSUNNY   86  37  17 W8        29.91F
RENO, NV       MOSUNNY   88  29  12 N7        29.99F
SALT LAKE CITY MOSUNNY   76  26  15 NW9       30.02S
SAN DIEGO, CA  CLOUDY    65  57  75 W7        29.86F
SAN FRANCISCO, MOSUNNY   69  58  67 NW16      29.80F
SAN JOSE, CA   MOSUNNY   85  55  35 NW15      29.78F
SEATTLE, WA    PTSUNNY   79  42  26 W6        29.98F
TIJUANA, MEX   CLOUDY    63  54  72 W7        29.87F

$$

STATION/POSITION TIME  TEMP    WIND        PRES    VSBY  WAVE
                       AIR SEA DIR/SP/G                  HT/PER
                 (UTC) (F)     (DEG/KT/KT) (MB)    (MI)  (FT/S)
POINT ARGUELLO B NOT AVBL
WEST SANTA BARBA 0050   56 55  300/ 17/ 21 1010.4F         5/16
POINT CONCEPTION NOT AVBL
EAST SANTA BARBA 0100   57 59  270/ 10/ 12 1011.1F
SANTA MONICA BAY 0050   61 64  250/  2/  4 1010.8F         3/15



USA.gov is the U.S. government's official web portal to all federal, state and local government web resources and services.